CAPE
3236 3133 3108 3120 3177 3204 3078 2939 2900 2765 2728 2796 2804 2737 2693 2548 2364 2223 2168 2248 1976 1926 1570 1299 1330 1162 1019 899 737 482 241 227 422 475 577 245 244 292 225 200 222 547 315 212 201 226 266 278 242 396 294 62 101 156 140 354 435 415 329 364 272 299 202 145 139 148 96 210 317 527 548 271 116 35 8 37 85 28 214 115 50 50 52 23 16
3358 3176 3140 3122 3089 3160 3102 3000 2955 2810 2693 2694 2734 2676 2656 2641 2395 2282 2114 2194 1994 1849 1659 1366 1241 1067 929 783 605 407 314 276 300 313 619 446 271 354 275 226 197 352 466 353 169 248 265 253 264 304 308 140 130 108 80 138 383 188 238 269 254 307 314 290 190 187 163 60 334 203 302 320 240 162 145 31 2 107 113 96 123 81 45 13 2
3472 3256 3145 3122 3089 3120 3149 3110 3055 2912 2745 2639 2666 2648 2644 2611 2522 2300 2300 2058 2006 1788 1648 1482 1254 997 842 666 530 493 416 412 390 360 458 576 390 378 376 343 197 217 384 374 262 226 264 339 290 240 311 188 327 318 226 184 374 149 127 255 212 154 183 205 149 176 169 55 27 107 205 208 205 116 88 126 182 136 122 114 128 141 216 104 38
3570 3395 3166 3109 3095 3141 3190 3209 3150 3100 2867 2698 2664 2690 2663 2630 2599 2416 2410 2248 2061 1869 1706 1542 1401 1173 896 683 594 566 491 442 475 480 449 531 558 489 415 344 218 204 254 336 336 311 308 383 424 313 272 131 125 166 178 160 205 129 67 84 66 99 181 381 540 138 66 245 89 210 132 123 80 60 104 273 190 133 58 25 61 153 105 128 76
3648 3603 3367 3157 3088 3138 3237 3248 3250 3199 3074 2867 2741 2726 2720 2717 2681 2552 2447 2423 2279 2061 1865 1684 1514 1316 1088 832 702 604 552 477 489 538 526 500 545 540 469 473 399 247 243 252 441 252 320 451 451 394 334 201 237 278 413 392 378 428 216 112 169 149 286 281 210 325 227 114 16 21 57 106 84 102 130 191 140 118 143 196 212 175 113 87 192
3682 3770 3638 3344 3170 3156 3261 3302 3289 3248 3168 3041 2936 2783 2749 2780 2783 2733 2564 2472 2436 2297 2082 1876 1675 1465 1243 1020 822 704 609 539 494 556 581 547 527 538 505 483 542 482 355 260 288 214 249 381 288 240 220 199 240 491 537 475 388 394 387 239 312 368 376 482 467 338 106 31 32 138 446 190 77 74 128 216 166 108 43 55 134 231 282 233 423
3683 3892 3796 3542 3286 3211 3261 3343 3334 3283 3193 3067 2969 2902 2750 2756 2874 2859 2787 2610 2485 2394 2245 2062 1865 1657 1445 1231 1003 796 677 547 466 533 595 594 514 410 364 381 533 541 476 380 306 244 250 372 429 333 334 284 358 488 568 581 512 534 477 438 450 450 569 562 463 355 374 428 493 482 463 224 267 242 82 250 232 152 118 97 80 78 85 56 30
3708 3894 3893 3686 3416 3310 3273 3342 3376 3328 3228 3076 2912 2873 2789 2653 2832 2978 2932 2812 2626 2490 2346 2163 2001 1806 1634 1432 1235 1008 764 601 479 439 520 434 576 645 488 468 484 500 499 450 404 320 315 403 494 492 448 451 415 514 535 485 465 447 468 462 319 407 463 490 479 470 464 418 340 131 41 43 8 8 52 79 94 60 175 265 222 167 51 4 70
3616 3849 3889 3715 3467 3364 3332 3366 3454 3449 3320 3144 2965 2840 2791 2697 2728 3015 3068 2977 2792 2615 2481 2345 2188 2008 1833 1664 1477 1307 1138 964 789 628 596 700 769 660 646 646 609 435 263 282 236 443 455 513 564 570 642 874 838 672 591 591 394 420 345 362 458 544 522 526 528 459 387 364 316 156 20 3 0 0 0 0 0 0 0 239 520 552 31 44 62
3452 3645 3774 3658 3435 3352 3335 3384 3486 3548 3520 3373 3202 3070 2944 2821 2816 3113 3234 3134 2996 2816 2648 2531 2399 2253 2118 1981 1855 1710 1543 1346 1248 1190 1160 1189 1217 1148 980 886 725 511 403 300 301 348 429 480 381 889 883 1485 1448 941 638 708 765 451 318 479 555 550 487 503 421 244 110 36 5 2 0 0 0 0 0 0 0 0 0 0 0 3 2 0 0
3296 3434 3592 3560 3413 3369 3405 3418 3467 3531 3594 3556 3395 3262 3175 3029 2936 3123 3383 3362 3211 3037 2878 2777 2667 2559 2460 2338 2190 2017 1881 1821 1704 1614 1608 1564 1445 1250 1092 856 624 527 493 489 318 219 196 322 329 1025 1058 982 1287 1353 1131 961 1023 1022 667 755 714 618 631 578 526 388 103 72 192 6 0 0 0 0 0 0 0 63 11 18 6 3 9 0 0
3171 3286 3547 3619 3579 3568 3546 3536 3501 3506 3585 3648 3555 3378 3283 3241 3158 3208 3388 3484 3460 3342 3165 3014 2906 2839 2730 2626 2508 2434 2346 2212 2111 1999 1894 1707 1530 1276 964 811 597 506 430 376 317 327 282 309 314 327 360 339 304 490 1193 1443 1124 978 782 490 515 586 595 452 170 108 241 404 293 5 0 0 0 0 0 9 6 0 0 1 1 1 0 0 0
3057 3175 3565 3798 3863 3836 3774 3702 3624 3566 3582 3691 3715 3581 3454 3497 3540 3551 3576 3503 3465 3434 3375 3293 3187 3037 2909 2879 2813 2705 2577 2437 2310 2193 2012 1809 1673 1475 1108 754 585 538 385 288 245 322 292 249 275 277 360 749 1022 1053 741 1021 1281 940 551 397 363 358 372 435 498 536 563 480 360 13 0 0 0 0 18 60 4 0 0 0 0 0 0 0 0
2976 3110 3557 3886 4026 4081 4021 3935 3857 3747 3703 3765 3927 3949 3776 3738 3894 3809 3768 3695 3570 3504 3460 3384 3294 3191 3101 3013 2898 2778 2706 2562 2408 2266 2026 1888 1668 1462 1263 787 582 446 365 290 318 508 629 512 499 484 558 740 825 967 852 724 723 648 526 400 375 640 456 585 663 523 390 405 444 49 32 5 26 10 175 101 5 0 0 0 0 0 0 0 0
2890 3070 3536 3919 4150 4242 4242 4195 4166 4076 4002 4052 4240 4281 4127 4043 4130 4042 3870 3824 3725 3606 3503 3405 3325 3223 3119 2979 2865 2814 2696 2582 2440 2254 1968 1632 1456 1338 933 903 608 463 413 335 320 551 562 598 535 490 423 305 463 1000 1322 970 891 793 786 890 945 901 905 922 599 382 90 0 1 17 36 10 3 1 3 79 20 0 0 0 0 0 0 0 0
2937 3073 3535 3989 4287 4416 4464 4472 4524 4469 4358 4412 4532 4519 4395 4266 4227 4116 3940 3810 3715 3587 3448 3275 3272 3181 3072 2991 2876 2796 2671 2510 2336 2177 1967 1765 1722 1381 922 994 745 673 492 264 316 298 446 376 729 751 648 537 549 668 1473 1552 1467 1373 1288 1230 1217 1230 1160 879 545 165 297 152 27 9 16 30 42 76 104 31 0 0 0 0 0 0 0 0 0
3140 3173 3597 4127 4489 4658 4698 4787 4802 4757 4638 4576 4606 4616 4529 4396 4258 4116 3985 3870 3762 3640 3495 3337 3283 3235 3150 3038 2924 2801 2684 2458 2216 2050 1924 1928 1681 1268 962 848 806 743 555 355 328 319 385 320 612 533 535 575 676 653 678 1885 1563 1449 1392 1387 1402 1349 1130 665 281 296 0 0 0 3 5 0 0 0 0 0 0 0 0 0 0 0 0 0 0
3459 3411 3800 4355 4760 4918 4963 4973 4919 4882 4763 4658 4574 4563 4528 4414 4300 4178 4046 3932 3830 3698 3459 3197 3219 3176 3128 3026 2909 2830 2710 2513 2296 2151 1987 1809 1539 1392 1077 857 735 547 485 436 436 448 324 517 1062 606 605 655 707 687 624 1140 1562 1613 1469 1339 1266 1149 746 365 386 169 2 0 0 0 0 0 0 0 0 0 0 0 0 0 0 0 0 0 0
3862 3776 4115 4707 5041 5134 5118 5048 4949 4890 4807 4682 4555 4456 4360 4288 4210 4080 3940 3809 3688 3491 3240 3124 3115 3083 3021 2892 2734 2684 2627 2533 2312 2083 1912 1679 1527 1403 1172 916 770 601 602 557 502 387 343 691 1333 1141 738 800 814 856 878 1028 1311 1412 1344 1269 1091 782 447 62 22 6 0 0 0 0 0 4 61 0 0 0 0 0 0 0 0 2 1 0 0
4194 4126 4535 5055 5217 5201 5144 5044 4951 4837 4708 4612 4470 4346 4204 4085 3947 3863 3765 3699 3585 3349 3101 2926 2826 2777 2732 2687 2613 2569 2481 2382 2132 1902 1756 1626 1487 1328 1153 996 930 762 612 619 495 297 333 760 1235 1399 1081 926 937 1030 1047 1163 1204 1254 1224 1096 829 447 3 0 2 3 0 0 0 0 0 0 0 0 4 37 112 189 39 0 0 0 0 0 0
4471 4560 5019 5217 5241 5165 5118 5006 4864 4700 4529 4424 4282 4160 4021 3887 3791 3704 3608 3462 3239 2886 2681 2512 2447 2468 2462 2437 2374 2350 2262 2104 1925 1767 1509 1372 1194 1104 1021 902 809 684 610 603 449 397 506 947 1214 1682 1500 1143 1061 1047 1121 1213 1263 1217 1169 845 392 0 0 0 0 7 0 0 0 0 0 0 0 0 0 0 0 0 0 11 42 16 18 1 0
4852 5053 5226 5222 5157 5094 5020 4920 4744 4510 4330 4214 4074 3994 3873 3737 3601 3471 3344 3109 2795 2710 2601 2392 2254 2224 2124 2073 2003 1936 1749 1449 1366 1355 1273 1083 969 935 843 696 676 617 510 507 352 499 841 1090 1240 1381 1414 1249 1164 1136 1155 1204 1241 1016 659 472 265 0 0 0 0 0 0 0 0 0 0 0 0 0 0 0 0 0 0 0 0 0 0 0 0
5213 5252 5210 5108 5046 4984 4858 4707 4489 4296 4166 3990 3869 3733 3477 3239 3090 3036 2936 2829 2726 2638 2486 2242 2054 1913 1664 1498 1485 1237 993 1021 1178 1195 997 850 718 701 666 592 542 504 552 438 408 881 1245 1317 1308 1254 1223 1166 1163 1229 1201 1073 958 769 557 49 0 0 0 0 0 0 0 0 0 0 0 0 0 0 0 0 0 0 0 0 0 0 0 0 0
5258 5200 5090 5005 4937 4854 4704 4540 4290 4090 3934 3741 3434 3041 2896 2829 2778 2727 2673 2562 2432 2264 2015 1833 1698 1464 1302 1147 1016 842 825 890 881 814 693 558 529 531 508 478 461 453 420 514 827 1186 1265 1285 1286 1392 1343 1303 1202 1163 1158 1051 678 293 67 234 34 0 0 0 0 0 0 0 0 0 0 0 0 0 0 0 0 0 0 0 0 0 0 0 0
5181 5137 5040 4952 4854 4659 4440 4274 4110 3881 3672 3086 2806 2733 2618 2482 2348 2236 2152 2090 2027 1869 1732 1570 1392 1175 993 839 891 1009 815 601 591 508 473 495 467 412 257 0 0 0 400 897 1328 1388 1366 1305 1242 1299 1274 1244 1192 914 618 430 315 290 236 0 0 0 0 0 0 0 0 0 0 0 0 0 0 0 0 0 0 0 0 0 0 0 0 0 0
5061 5040 4900 4744 4524 4291 4109 3948 3764 3501 3054 2931 2751 2669 2539 2254 2115 2010 1932 1824 1631 1437 1265 1136 959 846 734 756 909 902 760 697 540 501 526 486 412 236 0 0 0 0 0 577 827 1038 1108 1098 1108 1172 1175 1086 734 367 322 330 259 18 0 0 0 0 0 0 0 0 0 0 0 0 0 0 0 0 0 0 0 0 0 0 0 0 0 0 0
4922 4758 4516 4314 4166 4019 3866 3727 3394 3143 3027 2854 2657 2384 2083 2022 1964 1784 1544 1186 921 900 860 826 705 603 923 1033 958 870 780 648 620 589 517 516 510 0 0 0 0 0 0 0 396 605 754 876 961 961 844 561 382 349 317 104 0 0 0 0 0 0 0 0 0 0 0 0 0 0 0 0 0 0 0 0 0 0 0 0 0 0 0 0 0
4524 4289 4230 4053 3922 3803 3620 3272 3044 2886 2608 2522 2273 2138 2029 1885 1674 1445 1130 954 897 926 869 746 730 856 1173 1136 1005 922 833 760 653 721 678 596 489 0 0 0 0 0 0 0 203 448 636 758 753 758 662 350 314 260 0 0 0 0 0 0 0 0 0 0 0 0 0 0 0 0 0 0 0 0 0 0 0 0 0 0 0 0 0 0 0
4027 3836 3755 3542 3269 3186 3082 2941 2717 2505 2332 2237 2057 1927 1756 1576 1348 1114 816 890 1034 1040 1012 917 941 1045 1142 1075 993 893 859 779 808 753 696 559 557 23 0 0 0 0 0 347 533 677 613 617 655 554 305 8 8 0 0 0 0 0 0 0 0 0 0 0 0 0 0 0 0 0 0 0 0 0 0 0 0 0 0 0 0 0 0 0 0
3265 3143 3162 3166 2977 2882 2713 2525 2322 2267 2164 2084 1910 1665 1334 1179 1066 919 921 1060 1161 1192 1262 1252 1211 1121 1072 1040 967 818 854 907 715 737 783 700 433 231 223 212 225 428 533 686 842 744 464 458 387 108 0 0 0 0 0 0 0 0 0 0 0 0 0 0 0 0 0 0 0 1 0 0 0 0 0 0 0 0 0 0 0 0 0 0 0
2400 2622 2638 2561 2348 2154 2111 2136 2121 2068 1927 1782 1612 1316 1177 1083 1055 947 1028 1139 1230 1238 1201 1205 1124 1074 1024 1008 975 980 854 826 782 678 714 744 784 786 835 852 883 896 944 1004 884 657 462 316 129 0 0 0 0 0 0 62 87 0 0 0 0 0 0 0 0 0 0 0 0 0 0 0 0 0 0 0 0 0 0 0 0 0 0 0 0
1706 1818 1866 1865 1805 1732 1725 1702 1664 1630 1507 1387 1277 1104 1114 1138 1132 1048 1039 1096 1168 1173 1178 1130 1065 969 1056 1064 1037 884 908 852 815 740 592 375 0 0 106 384 598 754 798 662 498 362 225 126 140 216 138 1 1 12 11 75 80 56 74 8 0 0 79 79 32 0 0 0 0 0 0 0 0 0 0 0 0 0 0 0 0 0 0 0 0
1346 1377 1344 1253 1221 1223 1242 1281 1315 1349 1379 1317 1141 997 1053 1082 1094 1064 1128 1112 1098 1054 1062 1027 971 865 1021 967 953 847 827 749 576 604 555 408 253 49 0 0 0 0 0 148 200 100 24 97 157 130 0 46 0 0 0 2 0 0 0 0 0 0 0 0 0 0 0 0 0 0 0 0 0 0 0 0 0 0 0 0 0 0 0 0 0
1288 1216 1158 1130 1210 1172 1072 1053 1064 1102 1296 1389 1305 1195 1001 934 971 1008 1023 1029 977 936 904 917 902 842 735 692 599 483 480 640 597 533 458 316 253 88 0 0 0 0 0 0 17 37 50 154 145 0 0 0 0 0 0 0 0 0 0 0 0 0 0 0 0 0 0 0 0 0 0 0 0 0 0 0 0 0 0 0 0 0 0 0 0
1221 1698 1803 1561 1227 1214 1165 1147 1063 975 1022 1252 1215 1126 1166 1071 1007 982 954 953 943 903 828 778 771 752 666 674 604 473 428 463 430 452 294 162 26 0 0 0 0 0 0 0 0 0 136 163 33 0 0 0 0 0 0 0 0 0 0 0 0 2 9 1 0 0 0 0 0 0 0 0 0 0 0 0 0 0 0 0 0 0 0 0 0
1323 1544 1733 1595 1232 1236 1151 1092 1028 945 931 1023 1152 1212 1235 1200 1079 986 921 879 810 716 636 628 631 606 605 638 611 533 429 262 307 382 320 220 82 0 0 0 0 0 0 0 70 152 174 138 0 0 0 0 0 0 0 0 0 0 0 0 0 0 0 0 0 0 0 0 0 0 0 0 0 0 0 0 0 0 0 0 0 0 0 0 0
1450 1494 1376 1254 1193 1167 1105 1006 994 973 916 826 920 1014 1056 1072 1007 914 838 795 740 676 635 601 588 597 602 619 635 581 494 444 304 238 241 240 206 189 43 0 0 0 0 63 80 93 81 54 65 0 0 0 0 0 0 0 2 11 3 0 0 0 0 0 0 0 0 0 0 0 0 0 0 0 0 0 0 0 0 0 0 0 0 0 0
1286 1335 1283 1280 1253 1083 938 875 958 1024 1064 1006 991 1011 919 852 791 765 775 732 619 573 579 632 660 662 645 618 513 413 349 77 74 200 222 246 248 242 125 0 0 0 0 0 0 0 0 0 0 0 0 0 0 0 0 0 0 0 0 0 0 0 0 0 0 0 0 0 0 0 0 0 0 0 0 0 0 0 0 0 0 0 0 0 0
1181 1280 1266 1165 1035 1040 1008 950 906 965 1044 999 1075 1044 956 936 839 790 613 232 0 0 0 349 596 630 623 507 346 236 0 0 122 138 143 128 71 0 0 0 0 0 0 0 0 0 0 0 0 0 0 0 0 0 0 0 0 0 0 0 0 0 0 0 0 0 0 0 0 0 0 0 0 0 0 0 0 0 0 0 0 0 0 0 0
931 876 1064 1069 1026 1098 1102 1000 887 827 964 899 965 987 881 796 780 680 254 0 0 0 0 0 0 0 448 420 381 194 0 174 168 78 21 0 0 0 0 0 0 0 0 0 0 0 0 0 0 0 0 0 0 0 0 0 0 0 0 0 0 0 0 0 0 0 0 0 0 0 0 0 0 0 0 0 0 0 0 0 0 0 0 0 0
776 729 683 632 764 822 1060 1057 894 898 920 870 751 783 851 693 681 569 0 0 0 0 0 0 0 0 0 0 0 0 145 226 247 128 70 47 18 0 0 0 0 0 0 0 0 0 0 0 0 0 0 0 0 0 0 0 0 0 0 0 0 0 0 0 0 0 0 0 0 0 0 0 0 0 0 0 0 0 0 0 0 0 0 0 0
754 678 673 604 550 340 719 872 758 778 604 454 310 306 220 150 66 21 8 58 51 0 0 0 0 0 0 0 0 22 72 55 33 28 17 0 0 0 0 0 0 0 0 0 0 0 0 0 0 1 0 0 0 0 0 0 0 0 0 0 0 0 0 0 0 0 0 0 0 0 0 0 0 0 0 0 0 0 0 0 0 0 0 0 0
757 811 769 912 879 552 558 776 633 387 93 37 57 541 569 56 17 3 0 2 142 116 0 0 0 0 0 0 0 0 0 0 0 0 0 0 0 0 0 0 0 0 0 0 0 0 0 0 0 0 0 0 0 0 0 0 0 0 0 0 0 0 0 0 0 0 0 0 0 0 0 0 0 0 0 0 0 0 0 0 0 0 0 0 0
593 573 649 871 897 709 668 602 662 538 492 525 417 88 393 278 218 153 83 1 0 87 0 0 0 0 0 0 0 0 0 0 0 0 0 0 0 0 0 0 0 0 0 0 0 0 0 0 0 0 0 0 0 0 0 0 0 0 0 0 0 0 0 0 0 0 0 0 0 0 0 0 0 0 0 0 0 0 0 0 0 0 0 0 0
586 522 454 569 803 968 942 805 456 522 432 502 457 65 0 2 0 7 35 0 9 0 0 0 0 0 0 0 0 0 0 0 0 0 0 0 0 0 0 0 0 0 0 0 0 0 0 0 0 0 0 0 0 0 0 0 0 0 0 0 0 0 0 0 0 0 0 0 0 0 0 0 0 0 0 0 0 0 0 0 0 0 0 0 0
467 533 489 508 638 686 698 610 509 386 282 308 296 270 177 0 27 8 10 0 0 0 0 0 0 0 0 0 0 0 0 0 0 0 0 0 0 0 1 1 0 0 0 1 0 0 0 0 0 0 0 0 0 0 0 0 0 0 0 0 0 0 0 0 0 0 0 0 0 0 0 0 0 0 0 0 0 0 0 0 0 0 0 0 0
623 440 457 406 342 442 404 431 326 219 270 199 195 105 65 72 27 1 1 1 0 0 0 0 0 0 0 0 0 0 0 0 0 0 0 0 2 6 7 5 4 3 2 1 0 0 0 0 0 0 0 0 0 0 0 0 0 0 0 0 0 0 0 0 0 0 0 0 0 0 0 0 0 0 0 0 0 0 0 0 0 0 0 0 0
486 564 477 400 466 427 442 411 174 139 101 129 172 0 0 0 0 0 0 0 0 0 0 0 24 13 0 0 0 0 0 0 0 0 0 0 2 7 10 11 9 7 6 3 3 2 0 0 0 0 0 0 0 0 0 0 0 0 0 0 0 0 0 0 0 0 0 0 0 0 0 0 0 0 0 0 0 0 0 0 0 0 0 0 0
376 356 303 230 241 239 229 189 137 90 56 48 15 0 0 0 0 0 0 22 8 3 32 23 10 13 13 0 0 0 0 0 0 0 0 0 0 7 6 7 10 8 5 3 3 0 0 0 0 0 0 0 0 0 0 0 0 0 0 0 0 0 0 0 0 0 0 0 0 0 0 0 0 0 0 0 0 0 0 0 0 0 0 0 0
163 196 231 198 180 169 49 0 1 20 28 8 0 0 0 30 28 31 42 34 22 0 0 0 52 37 31 26 20 10 7 0 0 0 8 14 17 14 12 10 12 13 9 4 2 2 1 0 0 0 0 0 0 0 0 0 0 0 0 0 0 0 0 0 0 0 0 0 0 0 0 0 0 0 0 0 0 0 0 0 0 0 0 0 0
65 72 106 102 46 22 73 4 0 0 0 10 40 40 49 45 3 8 2 0 0 0 0 0 0 19 32 27 25 19 15 16 22 28 27 23 24 25 27 27 29 27 20 17 13 8 2 0 0 0 0 0 0 0 0 0 0 0 0 0 0 0 0 0 0 0 0 0 0 0 0 0 0 0 0 0 0 0 0 0 0 0 0 0 0
Wind_Speed
13 12 12 12 13 14 14 15 16 16 16 15 14 13 12 11 12 13 15 17 19 21 24 26 27 28 28 29 32 33 34 35 35 35 36 37 37 37 36 37 36 33 33 33 34 36 38 40 40 37 36 nan 33 29 27 26 27 28 28 28 27 26 27 26 25 22 nan 24 24 24 25 24 23 nan nan nan nan nan 26 28 nan nan nan nan nan
12 12 12 12 12 12 12 11 12 12 12 11 10 9 9 9 11 13 15 17 19 21 24 25 27 29 30 32 33 35 36 37 38 38 39 40 39 38 38 38 37 35 33 33 34 36 38 40 39 37 35 36 34 31 nan 26 26 28 28 30 29 27 28 28 24 23 21 nan 24 24 26 28 27 28 28 nan nan 30 30 nan 33 nan nan nan nan
11 11 12 12 12 12 12 10 10 10 10 8 8 9 9 9 11 13 15 17 19 22 24 25 27 29 31 32 33 35 37 40 42 43 43 44 44 42 41 40 38 36 34 34 35 36 37 38 38 38 37 36 35 33 31 29 29 30 30 31 30 29 28 27 25 23 23 nan nan 27 28 29 31 29 nan 31 31 32 33 34 35 35 36 36 nan
11 11 11 12 12 12 12 10 10 9 9 7 9 10 10 9 10 12 14 17 19 21 24 26 27 30 31 32 33 35 39 42 44 46 47 47 47 46 44 41 37 35 34 34 35 36 36 37 38 40 39 38 35 34 32 31 31 31 nan nan nan nan 29 28 27 25 nan 25 nan 29 28 29 nan nan 31 31 31 32 nan nan nan 35 35 35 nan
11 12 11 11 11 11 11 10 9 10 9 8 10 10 11 11 10 12 14 16 19 21 22 25 27 29 30 32 34 36 40 43 45 47 47 46 46 45 43 40 37 35 34 34 34 35 35 36 38 41 41 40 37 37 36 34 33 33 33 33 32 31 30 28 26 27 26 24 nan nan nan 29 nan 31 32 30 30 32 33 34 35 36 37 nan 39
11 12 11 11 10 11 10 10 10 10 10 9 10 10 10 11 12 12 15 17 19 20 22 23 24 27 28 30 34 37 39 41 45 47 48 47 45 43 41 40 38 36 35 34 34 34 34 35 37 39 40 40 38 38 38 37 35 36 36 34 33 33 32 29 28 29 29 nan nan 23 28 28 nan nan 31 32 30 30 nan nan 38 40 41 40 41
11 12 13 12 10 10 10 10 9 9 9 9 9 9 9 11 13 15 17 19 20 20 21 22 23 25 28 30 33 36 38 41 44 46 47 47 46 43 40 39 39 38 36 36 35 35 35 36 36 38 39 40 39 38 39 37 36 35 35 33 34 35 34 31 30 30 31 29 28 28 27 29 30 28 nan 33 34 36 36 nan nan nan nan nan nan
12 13 14 13 12 11 10 9 9 9 9 8 8 8 9 11 13 15 18 19 20 20 21 23 24 26 28 31 35 38 40 41 43 46 47 47 46 44 42 39 38 37 36 35 35 35 37 37 37 38 40 40 40 38 39 38 36 33 32 34 36 37 36 33 33 32 32 31 30 29 nan nan nan nan nan nan nan nan 42 45 42 42 nan nan nan
13 13 14 14 14 12 10 9 9 9 8 8 8 9 10 11 12 14 16 18 18 21 23 25 27 28 30 34 37 40 41 42 43 47 48 47 46 43 41 40 39 37 37 35 35 36 37 37 37 39 40 40 41 41 41 40 38 35 34 36 38 38 37 36 36 35 34 32 30 33 nan nan nan nan nan nan nan nan nan 49 47 45 nan nan nan
14 14 15 16 15 14 12 11 9 8 8 8 9 10 11 12 13 13 15 18 20 23 25 28 30 32 34 36 38 40 41 41 46 53 51 49 47 43 40 39 39 38 38 37 36 37 36 36 37 39 39 39 40 42 42 40 38 37 37 38 38 37 37 37 37 37 36 nan nan nan nan nan nan nan nan nan nan nan nan nan nan nan nan nan nan
15 14 16 17 17 16 13 12 9 7 7 9 10 11 12 13 14 15 17 20 24 26 28 31 32 34 36 37 39 40 41 43 53 56 56 55 49 43 39 38 37 38 38 38 37 37 35 35 37 39 41 41 41 40 37 35 33 34 38 41 41 40 38 38 37 38 37 nan 37 nan nan nan nan nan nan nan nan nan nan nan nan nan nan nan nan
17 15 16 17 19 18 14 13 9 6 7 10 12 13 14 15 16 18 21 24 26 28 30 32 34 35 36 39 41 41 42 47 55 57 57 56 51 43 37 35 36 36 37 38 36 36 37 36 37 38 38 38 37 34 31 32 32 33 39 43 43 41 41 41 40 40 41 41 39 nan nan nan nan nan nan nan nan nan nan nan nan nan nan nan nan
18 16 17 18 19 18 16 13 10 8 8 11 14 16 16 17 19 21 24 26 28 30 32 34 35 37 39 41 42 43 43 50 56 57 59 57 54 46 37 35 35 36 37 37 36 37 38 39 38 37 39 35 32 33 33 34 35 40 45 46 46 46 44 41 42 43 45 44 41 nan nan nan nan nan nan nan nan nan nan nan nan nan nan nan nan
22 18 18 18 19 19 17 13 10 10 11 14 16 17 18 19 21 23 26 28 31 32 34 36 38 40 41 42 43 44 45 51 57 58 58 58 55 47 39 37 36 37 38 38 38 39 41 41 40 39 40 39 36 35 37 40 43 45 46 46 47 47 47 45 45 44 43 41 40 nan nan nan nan nan 51 55 nan nan nan nan nan nan nan nan nan
26 22 20 19 18 18 17 15 13 13 15 17 18 18 20 21 24 26 28 30 32 34 36 38 40 42 43 44 45 46 46 55 58 59 59 59 56 49 41 39 39 40 40 40 40 41 42 42 40 40 40 39 36 37 40 44 47 48 48 48 49 49 48 48 49 49 nan nan nan nan nan nan nan nan nan nan nan nan nan nan nan nan nan nan nan
28 25 22 20 19 17 18 17 17 17 19 20 20 22 23 25 27 28 30 32 34 36 37 40 42 43 44 46 47 48 48 57 58 58 59 59 57 48 43 41 41 42 42 42 42 41 42 42 42 41 40 38 37 40 42 46 48 49 48 49 50 50 49 49 49 47 45 44 nan nan nan nan nan nan 53 nan nan nan nan nan nan nan nan nan nan
30 28 24 21 20 19 18 19 20 20 21 22 23 26 27 28 30 31 34 36 38 39 40 41 43 46 46 48 50 49 49 54 56 57 60 62 55 46 45 43 43 44 43 42 42 41 41 41 43 42 40 38 38 43 45 48 48 49 48 49 49 49 48 49 47 44 nan nan nan nan nan nan nan nan nan nan nan nan nan nan nan nan nan nan nan
32 31 26 24 24 22 21 22 22 22 23 24 27 29 30 31 33 34 38 40 41 42 44 46 46 47 48 49 51 52 51 53 56 56 60 60 55 49 46 46 45 44 42 40 41 40 40 41 43 42 41 39 42 47 48 48 48 49 50 49 48 48 48 51 50 49 nan nan nan nan nan nan nan nan nan nan nan nan nan nan nan nan nan nan nan
34 34 31 28 28 27 25 24 25 26 27 29 31 34 34 34 35 37 40 43 44 46 48 49 49 49 50 51 53 54 53 52 53 56 58 58 53 48 46 44 43 41 39 38 37 39 39 38 40 42 40 40 45 50 50 48 47 50 50 50 48 48 51 nan nan nan nan nan nan nan nan nan nan nan nan nan nan nan nan nan nan nan nan nan nan
37 38 37 34 32 31 29 28 28 29 31 34 36 37 37 38 39 41 42 45 47 49 51 53 53 52 54 56 55 54 54 52 53 57 58 57 56 49 45 44 41 40 39 38 37 37 37 36 35 40 42 44 48 52 53 52 50 50 50 49 49 48 nan nan nan nan nan nan nan nan nan nan nan nan nan nan 51 52 nan nan nan nan nan nan nan
43 44 41 37 36 34 32 31 32 32 34 38 40 40 41 43 44 45 46 48 50 52 55 55 55 56 59 61 57 53 52 52 52 57 56 56 54 51 45 44 41 40 39 38 38 37 36 35 36 40 45 48 51 53 53 52 50 49 49 48 49 nan nan nan nan nan nan nan nan nan nan nan nan nan nan nan nan nan nan nan nan nan nan nan nan
46 48 43 39 38 37 35 34 34 35 38 41 42 43 45 48 48 49 49 51 53 55 57 58 57 59 62 59 51 47 51 55 54 55 57 55 53 51 47 44 43 43 41 40 38 37 37 37 38 42 47 50 52 53 52 52 52 50 48 50 54 nan nan nan nan nan nan nan nan nan nan nan nan nan nan nan nan nan nan nan nan nan nan nan nan
48 48 45 41 40 39 36 36 36 37 41 43 45 47 48 50 50 51 52 53 55 58 58 56 55 57 58 52 44 45 49 53 58 57 55 54 52 50 49 46 46 44 43 40 39 38 38 39 41 48 50 53 54 53 54 55 54 50 53 nan nan nan nan nan nan nan nan nan nan nan nan nan nan nan nan nan nan nan nan nan nan nan nan nan nan
50 49 46 43 43 41 38 38 40 42 45 46 47 49 50 51 51 50 51 53 56 57 54 52 53 55 55 50 47 48 51 52 55 59 55 54 53 52 49 47 46 43 41 40 39 40 41 41 43 51 53 54 54 54 55 56 51 52 nan 53 nan nan nan nan nan nan nan nan nan nan nan nan nan nan nan nan nan nan nan nan nan nan nan nan nan
52 50 48 46 45 42 40 41 44 47 47 48 49 50 52 52 51 50 54 55 56 55 51 50 52 54 55 54 53 52 53 53 53 55 57 54 53 52 50 nan nan nan 40 40 41 42 45 49 51 53 52 52 52 53 52 50 49 50 51 nan nan nan nan nan nan nan nan nan nan nan nan nan nan nan nan nan nan nan nan nan nan nan nan nan nan
54 52 50 48 46 44 44 47 49 50 50 50 51 51 52 51 52 53 55 56 56 54 52 51 51 53 56 57 57 57 56 54 53 51 49 50 49 49 nan nan nan nan nan 43 47 51 52 51 51 51 50 50 50 49 48 48 47 nan nan nan nan nan nan nan nan nan nan nan nan nan nan nan nan nan nan nan nan nan nan nan nan nan nan nan nan
58 55 52 49 47 46 47 48 50 51 52 52 51 52 52 53 54 55 55 55 55 53 53 53 53 54 58 60 61 62 58 53 50 48 46 47 47 nan nan nan nan nan nan nan 48 47 49 47 47 48 48 51 49 48 48 50 nan nan nan nan nan nan nan nan nan nan nan nan nan nan nan nan nan nan nan nan nan nan nan nan nan nan nan nan nan
58 54 52 49 48 48 49 52 52 50 50 51 52 52 53 53 54 55 55 55 54 53 53 53 55 58 61 62 64 63 55 47 46 47 47 48 49 nan nan nan nan nan nan nan 47 47 47 46 47 45 46 46 44 45 nan nan nan nan nan nan nan nan nan nan nan nan nan nan nan nan nan nan nan nan nan nan nan nan nan nan nan nan nan nan nan
55 52 51 50 50 48 48 48 49 51 53 55 52 50 52 54 56 55 52 53 54 56 55 56 58 60 63 64 65 59 50 43 42 47 49 51 51 nan nan nan nan nan nan 53 49 47 46 46 46 45 45 nan nan nan nan nan nan nan nan nan nan nan nan nan nan nan nan nan nan nan nan nan nan nan nan nan nan nan nan nan nan nan nan nan nan
54 50 49 48 46 47 46 47 50 52 54 54 55 55 57 57 54 56 55 56 54 51 56 58 60 64 68 64 58 53 45 43 49 54 54 54 52 52 52 54 53 51 53 56 51 48 47 46 45 46 nan nan nan nan nan nan nan nan nan nan nan nan nan nan nan nan nan nan nan nan nan nan nan nan nan nan nan nan nan nan nan nan nan nan nan
45 45 46 44 44 46 47 49 51 52 53 54 56 58 58 59 61 62 59 54 54 58 61 66 69 70 69 58 45 41 38 45 55 53 53 52 53 52 54 55 55 55 57 53 48 48 47 46 45 nan nan nan nan nan nan nan nan nan nan nan nan nan nan nan nan nan nan nan nan nan nan nan nan nan nan nan nan nan nan nan nan nan nan nan nan
36 41 44 44 46 47 48 50 52 53 53 55 56 57 59 60 60 62 60 54 54 56 58 60 63 68 64 55 46 39 40 44 53 54 53 53 nan nan 54 56 56 57 56 55 50 48 47 45 43 43 43 nan nan nan nan nan nan nan nan nan nan nan nan nan nan nan nan nan nan nan nan nan nan nan nan nan nan nan nan nan nan nan nan nan nan
39 43 44 43 45 48 50 52 54 54 54 55 56 58 61 62 61 57 52 51 56 59 60 59 56 54 54 51 48 47 47 48 51 53 53 54 54 nan nan nan nan nan nan 50 48 46 nan nan 42 40 nan nan nan nan nan nan nan nan nan nan nan nan nan nan nan nan nan nan nan nan nan nan nan nan nan nan nan nan nan nan nan nan nan nan nan
45 46 45 47 50 52 54 55 56 55 54 56 58 59 58 57 54 52 52 50 52 55 58 55 50 49 49 49 50 51 51 51 52 53 54 54 55 nan nan nan nan nan nan nan nan nan nan 40 39 nan nan nan nan nan nan nan nan nan nan nan nan nan nan nan nan nan nan nan nan nan nan nan nan nan nan nan nan nan nan nan nan nan nan nan nan
48 51 55 53 53 55 57 57 56 56 56 58 58 55 52 49 50 51 50 51 53 55 50 45 44 46 47 47 47 49 50 50 51 52 53 54 nan nan nan nan nan nan nan nan nan nan 40 39 nan nan nan nan nan nan nan nan nan nan nan nan nan nan nan nan nan nan nan nan nan nan nan nan nan nan nan nan nan nan nan nan nan nan nan nan nan
48 50 53 56 57 57 57 57 57 58 58 56 52 48 46 48 49 49 49 51 54 53 47 43 43 44 49 47 47 48 49 49 50 51 52 54 nan nan nan nan nan nan nan nan nan 38 38 37 nan nan nan nan nan nan nan nan nan nan nan nan nan nan nan nan nan nan nan nan nan nan nan nan nan nan nan nan nan nan nan nan nan nan nan nan nan
50 52 53 54 56 57 58 60 59 58 55 51 45 44 47 50 50 50 51 52 52 48 46 45 45 44 44 42 45 46 46 48 49 49 49 50 45 44 nan nan nan nan nan nan nan nan nan nan nan nan nan nan nan nan nan nan nan nan nan nan nan nan nan nan nan nan nan nan nan nan nan nan nan nan nan nan nan nan nan nan nan nan nan nan nan
50 51 51 53 56 58 60 60 57 55 49 46 45 47 50 52 51 51 51 51 48 45 44 43 43 45 45 43 42 42 45 nan nan 48 45 44 42 43 43 nan nan nan nan nan nan nan nan nan nan nan nan nan nan nan nan nan nan nan nan nan nan nan nan nan nan nan nan nan nan nan nan nan nan nan nan nan nan nan nan nan nan nan nan nan nan
52 54 57 56 56 55 55 55 52 49 47 47 49 51 52 53 53 53 51 48 nan nan nan 43 42 43 44 44 44 45 nan nan 46 45 44 43 nan nan nan nan nan nan nan nan nan nan nan nan nan nan nan nan nan nan nan nan nan nan nan nan nan nan nan nan nan nan nan nan nan nan nan nan nan nan nan nan nan nan nan nan nan nan nan nan nan
53 54 56 59 56 53 51 50 49 49 49 49 50 51 53 53 52 50 46 nan nan nan nan nan nan nan 43 44 44 45 nan 45 44 nan nan nan nan nan nan nan nan nan nan nan nan nan nan nan nan nan nan nan nan nan nan nan nan nan nan nan nan nan nan nan nan nan nan nan nan nan nan nan nan nan nan nan nan nan nan nan nan nan nan nan nan
53 55 56 57 55 52 51 51 51 52 52 51 52 54 53 52 48 43 nan nan nan nan nan nan nan nan nan nan nan nan 45 45 44 44 nan nan nan nan nan nan nan nan nan nan nan nan nan nan nan nan nan nan nan nan nan nan nan nan nan nan nan nan nan nan nan nan nan nan nan nan nan nan nan nan nan nan nan nan nan nan nan nan nan nan nan
52 53 55 54 54 53 53 53 54 54 54 53 53 53 51 48 nan nan nan nan nan nan nan nan nan nan nan nan nan nan nan nan nan nan nan nan nan nan nan nan nan nan nan nan nan nan nan nan nan nan nan nan nan nan nan nan nan nan nan nan nan nan nan nan nan nan nan nan nan nan nan nan nan nan nan nan nan nan nan nan nan nan nan nan nan
49 51 53 54 56 58 59 57 55 56 nan nan nan 47 45 nan nan nan nan nan 41 42 nan nan nan nan nan nan nan nan nan nan nan nan nan nan nan nan nan nan nan nan nan nan nan nan nan nan nan nan nan nan nan nan nan nan nan nan nan nan nan nan nan nan nan nan nan nan nan nan nan nan nan nan nan nan nan nan nan nan nan nan nan nan nan
50 54 58 59 60 60 60 58 56 52 49 46 43 nan 37 34 37 39 nan nan nan nan nan nan nan nan nan nan nan nan nan nan nan nan nan nan nan nan nan nan nan nan nan nan nan nan nan nan nan nan nan nan nan nan nan nan nan nan nan nan nan nan nan nan nan nan nan nan nan nan nan nan nan nan nan nan nan nan nan nan nan nan nan nan nan
54 55 57 56 54 53 52 50 49 47 45 39 35 nan nan nan nan nan nan nan nan nan nan nan nan nan nan nan nan nan nan nan nan nan nan nan nan nan nan nan nan nan nan nan nan nan nan nan nan nan nan nan nan nan nan nan nan nan nan nan nan nan nan nan nan nan nan nan nan nan nan nan nan nan nan nan nan nan nan nan nan nan nan nan nan
53 49 48 48 46 45 43 39 37 38 37 32 32 35 34 nan nan nan nan nan nan nan nan nan nan nan nan nan nan nan nan nan nan nan nan nan nan nan nan nan nan nan nan nan nan nan nan nan nan nan nan nan nan nan nan nan nan nan nan nan nan nan nan nan nan nan nan nan nan nan nan nan nan nan nan nan nan nan nan nan nan nan nan nan nan
47 44 40 39 39 38 35 31 30 30 34 33 32 32 nan nan nan nan nan nan nan nan nan nan nan nan nan nan nan nan nan nan nan nan nan nan nan nan nan nan nan nan nan nan nan nan nan nan nan nan nan nan nan nan nan nan nan nan nan nan nan nan nan nan nan nan nan nan nan nan nan nan nan nan nan nan nan nan nan nan nan nan nan nan nan
39 36 33 33 32 30 29 29 31 34 35 35 33 nan nan nan nan nan nan nan nan nan nan nan nan nan nan nan nan nan nan nan nan nan nan nan nan nan nan nan nan nan nan nan nan nan nan nan nan nan nan nan nan nan nan nan nan nan nan nan nan nan nan nan nan nan nan nan nan nan nan nan nan nan nan nan nan nan nan nan nan nan nan nan nan
34 32 31 32 32 31 29 31 33 nan nan nan nan nan nan nan nan nan nan nan nan nan nan nan nan nan nan nan nan nan nan nan nan nan nan nan nan nan nan nan nan nan nan nan nan nan nan nan nan nan nan nan nan nan nan nan nan nan nan nan nan nan nan nan nan nan nan nan nan nan nan nan nan nan nan nan nan nan nan nan nan nan nan nan nan
31 33 31 32 33 31 nan nan nan nan nan nan nan nan nan nan nan nan nan nan nan nan nan nan nan nan nan nan nan nan nan nan nan nan nan nan nan nan nan nan nan nan nan nan nan nan nan nan nan nan nan nan nan nan nan nan nan nan nan nan nan nan nan nan nan nan nan nan nan nan nan nan nan nan nan nan nan nan nan nan nan nan nan nan nan
nan nan 30 29 nan nan nan nan nan nan nan nan nan nan nan nan nan nan nan nan nan nan nan nan nan nan nan nan nan nan nan nan nan nan nan nan nan nan nan nan nan nan nan nan nan nan nan nan nan nan nan nan nan nan nan nan nan nan nan nan nan nan nan nan nan nan nan nan nan nan nan nan nan nan nan nan nan nan nan nan nan nan nan nan nan
Wind_Direction
324 317 307 307 305 308 304 298 298 294 299 304 305 304 305 314 319 314 305 313 314 319 323 323 326 329 331 331 333 333 333 333 333 332 332 333 330 328 325 324 324 323 319 318 318 319 320 319 322 327 328 nan 330 328 323 319 315 315 315 315 317 314 314 318 318 316 nan 307 307 303 298 292 285 nan nan nan nan nan 294 297 nan nan nan nan nan
331 322 316 315 319 317 316 309 307 305 314 314 316 317 318 319 319 312 319 314 317 321 326 325 324 328 330 332 333 334 334 335 336 336 334 333 332 328 328 326 324 321 318 319 321 320 319 318 320 325 325 325 327 328 nan 320 316 315 315 315 317 317 317 317 319 316 317 nan 305 302 299 300 298 293 293 nan nan 291 293 nan 295 nan nan nan nan
328 322 323 323 326 318 318 322 327 329 332 327 334 334 333 326 320 320 320 315 317 321 325 326 326 327 329 332 334 335 337 338 339 339 337 334 333 331 331 330 326 320 319 321 322 320 319 319 319 319 319 322 325 326 323 321 317 316 316 314 316 317 317 318 316 316 316 nan nan 307 305 303 305 303 nan 299 299 298 297 297 299 300 301 302 nan
329 326 328 329 324 318 322 329 340 340 342 338 345 341 334 329 320 320 316 314 319 321 324 325 325 328 331 333 336 338 341 341 341 340 339 336 334 333 332 331 327 322 320 318 317 317 318 317 318 317 317 321 324 324 323 319 316 313 nan nan nan nan 315 313 315 316 nan 309 nan 309 306 306 nan nan 303 304 306 305 nan nan nan 303 303 302 nan
330 329 330 330 325 325 331 332 342 347 346 337 346 341 335 327 319 323 314 317 320 320 321 322 325 329 335 337 338 340 343 342 342 341 339 337 336 333 332 330 327 324 321 317 315 313 313 315 314 313 314 318 320 322 321 319 315 312 312 312 313 314 313 312 313 312 310 307 nan nan nan 308 nan 306 306 308 307 306 305 307 308 308 307 nan 306
335 330 324 324 322 329 331 334 343 348 345 336 339 341 335 328 325 321 319 319 318 320 321 322 326 333 337 338 339 339 339 341 341 340 339 337 335 333 333 330 325 322 321 319 315 312 312 312 311 310 311 314 316 317 317 318 315 313 310 309 311 310 312 310 307 308 309 nan nan 303 303 308 nan nan 306 308 308 303 nan nan 307 306 306 304 305
331 334 327 322 313 323 329 333 333 336 332 330 330 337 339 332 327 325 319 317 317 322 326 329 329 332 334 334 336 336 336 338 338 337 337 336 335 334 332 330 325 320 320 319 316 314 312 310 309 309 311 313 315 317 316 313 314 314 310 309 310 309 310 308 304 304 306 308 307 308 306 304 304 303 nan 306 307 307 308 nan nan nan nan nan nan
324 331 327 322 316 320 323 322 320 323 322 324 330 336 333 326 325 320 315 321 324 329 333 334 332 330 331 333 334 334 334 335 336 336 334 334 334 334 334 331 326 320 316 316 315 314 313 313 311 310 312 314 316 317 314 315 313 313 312 310 311 310 309 305 299 298 301 304 309 309 nan nan nan nan nan nan nan nan 309 311 310 307 nan nan nan
314 325 327 326 319 311 307 304 304 311 320 324 327 328 327 325 320 317 320 325 326 331 331 331 331 331 330 332 333 333 334 335 334 334 333 332 331 333 333 332 328 324 322 319 316 314 312 312 309 308 309 316 323 320 315 313 310 311 310 309 309 308 306 302 299 295 295 301 307 307 nan nan nan nan nan nan nan nan nan 305 305 303 nan nan nan
308 321 330 327 310 301 301 298 303 313 316 320 324 321 318 318 317 319 324 328 328 326 327 328 331 333 333 332 331 331 332 331 333 336 336 332 332 332 332 333 330 327 324 321 318 315 312 308 307 314 320 324 326 322 317 318 319 313 309 307 307 306 305 301 298 296 296 nan nan nan nan nan nan nan nan nan nan nan nan nan nan nan nan nan nan
304 314 326 320 305 297 296 300 302 317 312 308 310 309 310 308 311 314 319 324 325 323 322 326 330 332 332 330 331 331 331 331 334 338 338 336 333 331 333 331 328 326 324 322 319 315 312 308 306 312 312 310 311 316 317 319 321 322 316 312 310 310 307 303 300 296 297 nan 303 nan nan nan nan nan nan nan nan nan nan nan nan nan nan nan nan
300 308 314 309 301 300 299 302 304 305 296 300 301 302 298 300 308 312 313 319 321 319 321 324 327 327 327 327 330 332 333 333 335 337 336 336 332 330 330 326 324 323 322 321 317 312 310 308 306 305 305 302 304 306 313 318 321 322 313 309 309 308 307 306 303 298 296 298 301 nan nan nan nan nan nan nan nan nan nan nan nan nan nan nan nan
294 297 301 304 303 300 298 300 300 291 291 290 289 292 299 303 307 309 315 316 314 319 321 319 322 323 324 326 328 331 332 332 334 335 337 335 333 331 326 324 321 321 320 318 314 310 306 304 304 303 302 306 307 307 307 309 317 319 313 310 309 310 311 310 308 305 297 295 298 nan nan nan nan nan nan nan nan nan nan nan nan nan nan nan nan
291 291 293 302 302 296 295 294 290 287 282 282 284 292 300 308 306 305 304 309 315 316 317 317 317 320 322 324 326 327 329 329 332 333 334 335 333 329 324 323 320 319 319 317 313 308 304 305 306 304 302 304 304 305 306 309 308 307 307 306 306 308 312 314 313 308 300 298 300 nan nan nan nan nan 304 304 nan nan nan nan nan nan nan nan nan
290 286 290 297 296 290 289 287 284 280 280 280 284 293 300 299 300 302 304 307 310 313 314 312 314 317 319 321 322 324 325 327 330 333 335 333 332 328 322 320 319 318 319 317 311 307 304 304 305 304 303 305 306 304 307 308 307 306 305 304 304 304 305 304 303 301 nan nan nan nan nan nan nan nan nan nan nan nan nan nan nan nan nan nan nan
288 286 285 289 293 289 285 283 280 277 279 282 287 293 297 300 300 299 299 298 300 303 306 307 310 313 315 317 318 321 321 326 331 332 331 332 330 325 321 318 318 318 319 316 313 309 307 307 304 304 306 307 309 312 307 302 302 301 302 301 301 302 303 302 303 302 301 304 nan nan nan nan nan nan 308 nan nan nan nan nan nan nan nan nan nan
285 288 286 285 286 283 279 280 280 280 283 289 292 292 294 296 296 297 297 297 299 301 303 303 304 307 311 314 316 317 314 321 325 328 330 329 325 323 318 315 314 314 315 315 313 311 310 307 305 305 306 306 307 309 308 303 301 301 301 300 299 300 300 298 300 303 nan nan nan nan nan nan nan nan nan nan nan nan nan nan nan nan nan nan nan
282 284 281 277 276 275 275 277 279 281 285 290 288 286 287 290 294 296 297 297 298 300 300 299 300 304 308 310 312 311 310 317 324 325 324 325 325 323 320 318 318 318 317 315 313 313 311 316 310 306 305 302 303 307 308 305 301 300 298 297 298 298 297 297 297 296 nan nan nan nan nan nan nan nan nan nan nan nan nan nan nan nan nan nan nan
277 281 278 272 269 269 270 273 277 281 284 283 282 285 289 292 292 292 294 295 297 298 298 299 299 302 305 306 307 308 308 313 320 320 322 325 326 323 323 323 321 318 316 316 315 312 310 314 318 310 303 301 305 306 308 306 303 299 296 296 299 298 297 nan nan nan nan nan nan nan nan nan nan nan nan nan nan nan nan nan nan nan nan nan nan
272 272 270 265 262 263 265 271 275 279 280 279 280 284 285 287 290 291 292 293 295 296 296 298 301 303 303 302 303 305 308 309 316 319 323 326 330 326 324 323 323 321 317 317 315 312 312 310 310 312 309 304 303 305 306 305 303 301 299 298 297 299 nan nan nan nan nan nan nan nan nan nan nan nan nan nan 305 306 nan nan nan nan nan nan nan
263 265 265 262 260 262 262 268 275 277 278 279 280 283 285 286 286 288 289 290 293 294 296 299 300 302 302 299 296 299 305 309 312 319 322 325 328 325 322 324 322 319 319 318 315 315 314 311 305 305 305 302 303 304 304 305 305 301 299 298 298 nan nan nan nan nan nan nan nan nan nan nan nan nan nan nan nan nan nan nan nan nan nan nan nan
260 261 262 260 258 260 262 265 271 273 274 277 280 280 280 282 283 286 288 292 295 296 297 300 302 305 307 301 294 297 304 309 308 316 319 322 325 325 321 322 320 318 317 316 317 317 315 310 305 303 304 302 303 305 306 306 304 299 296 296 295 nan nan nan nan nan nan nan nan nan nan nan nan nan nan nan nan nan nan nan nan nan nan nan nan
258 258 258 256 255 257 261 266 267 268 271 275 278 278 279 280 282 286 291 294 296 296 298 302 306 309 312 309 303 302 304 305 310 313 318 320 325 326 326 322 322 318 317 318 319 317 313 307 299 301 300 301 302 304 305 304 302 300 300 nan nan nan nan nan nan nan nan nan nan nan nan nan nan nan nan nan nan nan nan nan nan nan nan nan nan
254 253 251 250 251 254 259 262 263 265 269 272 274 276 278 279 282 287 291 291 292 295 299 304 308 311 313 312 307 304 305 304 310 316 317 322 324 328 329 325 316 315 315 316 315 312 307 301 297 302 301 301 302 304 304 304 302 303 nan 301 nan nan nan nan nan nan nan nan nan nan nan nan nan nan nan nan nan nan nan nan nan nan nan nan nan
252 249 248 247 249 252 255 257 260 263 265 270 272 274 277 280 282 286 287 287 290 296 300 303 307 310 310 310 305 303 303 305 307 313 319 322 326 328 329 nan nan nan 307 307 307 306 304 300 299 300 301 301 300 299 299 302 303 300 300 nan nan nan nan nan nan nan nan nan nan nan nan nan nan nan nan nan nan nan nan nan nan nan nan nan nan
248 247 245 245 247 250 252 253 256 259 261 264 268 271 277 280 282 283 284 286 290 294 298 302 305 306 306 305 305 303 302 300 302 304 310 318 322 326 nan nan nan nan nan 305 306 305 305 305 302 301 298 298 297 298 300 303 305 nan nan nan nan nan nan nan nan nan nan nan nan nan nan nan nan nan nan nan nan nan nan nan nan nan nan nan nan
245 244 244 244 245 248 251 252 255 258 261 264 269 272 275 278 280 281 283 286 289 294 298 301 302 303 303 303 303 302 299 298 301 304 307 311 314 nan nan nan nan nan nan nan 305 304 305 305 306 306 304 306 303 303 303 302 nan nan nan nan nan nan nan nan nan nan nan nan nan nan nan nan nan nan nan nan nan nan nan nan nan nan nan nan nan
244 243 242 241 243 246 248 255 257 259 262 267 271 273 275 278 281 283 285 287 290 292 295 298 300 301 301 301 301 301 300 300 303 308 310 310 309 nan nan nan nan nan nan nan 308 306 304 301 300 299 299 299 299 298 nan nan nan nan nan nan nan nan nan nan nan nan nan nan nan nan nan nan nan nan nan nan nan nan nan nan nan nan nan nan nan
241 241 239 240 242 246 250 253 255 258 259 258 258 263 272 278 277 276 275 278 284 289 293 296 299 299 299 299 299 301 302 306 310 309 311 313 312 nan nan nan nan nan nan 311 306 302 300 301 301 302 302 nan nan nan nan nan nan nan nan nan nan nan nan nan nan nan nan nan nan nan nan nan nan nan nan nan nan nan nan nan nan nan nan nan nan
234 235 237 241 246 249 251 253 256 258 261 263 265 263 258 260 269 279 280 279 283 291 295 296 299 300 300 297 294 300 307 310 308 310 312 313 314 313 312 314 315 312 312 313 307 305 306 306 307 306 nan nan nan nan nan nan nan nan nan nan nan nan nan nan nan nan nan nan nan nan nan nan nan nan nan nan nan nan nan nan nan nan nan nan nan
225 231 239 244 248 251 253 254 255 257 260 263 266 268 267 263 260 261 267 275 283 288 293 298 301 304 305 302 291 285 296 306 311 313 312 313 314 313 312 313 314 313 313 310 307 307 307 308 308 nan nan nan nan nan nan nan nan nan nan nan nan nan nan nan nan nan nan nan nan nan nan nan nan nan nan nan nan nan nan nan nan nan nan nan nan
231 236 241 246 250 251 254 257 259 261 262 265 268 270 271 271 266 262 264 272 278 281 283 286 295 301 303 304 302 298 297 304 313 313 313 312 nan nan 312 314 315 314 315 311 308 309 310 309 308 311 313 nan nan nan nan nan nan nan nan nan nan nan nan nan nan nan nan nan nan nan nan nan nan nan nan nan nan nan nan nan nan nan nan nan nan
240 244 247 250 251 254 256 258 260 263 267 269 271 273 274 274 274 275 273 275 279 281 282 284 284 287 294 299 301 305 307 304 306 307 308 308 307 nan nan nan nan nan nan 308 309 310 nan nan 309 309 nan nan nan nan nan nan nan nan nan nan nan nan nan nan nan nan nan nan nan nan nan nan nan nan nan nan nan nan nan nan nan nan nan nan nan
243 247 248 249 251 253 254 255 257 260 263 265 267 269 271 275 280 284 287 288 285 284 283 279 279 283 285 290 296 299 301 304 306 307 307 307 307 nan nan nan nan nan nan nan nan nan nan 308 305 nan nan nan nan nan nan nan nan nan nan nan nan nan nan nan nan nan nan nan nan nan nan nan nan nan nan nan nan nan nan nan nan nan nan nan nan
245 251 256 254 255 256 257 259 261 262 263 264 266 270 273 279 284 287 290 292 294 295 295 287 280 280 289 291 291 296 300 302 304 306 306 307 nan nan nan nan nan nan nan nan nan nan 303 302 nan nan nan nan nan nan nan nan nan nan nan nan nan nan nan nan nan nan nan nan nan nan nan nan nan nan nan nan nan nan nan nan nan nan nan nan nan
248 249 251 254 254 256 259 261 263 265 266 267 270 275 280 283 284 285 285 288 293 294 291 288 290 287 285 286 289 292 295 297 301 304 306 307 nan nan nan nan nan nan nan nan nan 306 304 304 nan nan nan nan nan nan nan nan nan nan nan nan nan nan nan nan nan nan nan nan nan nan nan nan nan nan nan nan nan nan nan nan nan nan nan nan nan
248 250 253 255 257 259 259 260 261 263 265 269 276 280 281 282 282 283 284 289 292 292 292 294 294 290 289 290 290 289 291 295 297 299 302 304 304 302 nan nan nan nan nan nan nan nan nan nan nan nan nan nan nan nan nan nan nan nan nan nan nan nan nan nan nan nan nan nan nan nan nan nan nan nan nan nan nan nan nan nan nan nan nan nan nan
248 251 254 256 257 260 262 262 264 267 267 271 276 278 278 280 282 283 286 288 291 292 294 295 295 297 297 297 299 298 297 nan nan 293 296 298 301 303 302 nan nan nan nan nan nan nan nan nan nan nan nan nan nan nan nan nan nan nan nan nan nan nan nan nan nan nan nan nan nan nan nan nan nan nan nan nan nan nan nan nan nan nan nan nan nan
246 251 258 261 259 260 262 265 268 270 271 275 278 279 279 280 281 281 284 287 nan nan nan 294 294 296 296 297 297 299 nan nan 302 304 305 306 nan nan nan nan nan nan nan nan nan nan nan nan nan nan nan nan nan nan nan nan nan nan nan nan nan nan nan nan nan nan nan nan nan nan nan nan nan nan nan nan nan nan nan nan nan nan nan nan nan
253 255 259 261 256 259 262 267 269 271 274 276 278 279 280 281 282 282 285 nan nan nan nan nan nan nan 296 298 299 302 nan 303 304 nan nan nan nan nan nan nan nan nan nan nan nan nan nan nan nan nan nan nan nan nan nan nan nan nan nan nan nan nan nan nan nan nan nan nan nan nan nan nan nan nan nan nan nan nan nan nan nan nan nan nan nan
256 259 258 257 260 260 262 265 269 272 275 276 277 280 282 281 281 282 nan nan nan nan nan nan nan nan nan nan nan nan 302 304 303 304 nan nan nan nan nan nan nan nan nan nan nan nan nan nan nan nan nan nan nan nan nan nan nan nan nan nan nan nan nan nan nan nan nan nan nan nan nan nan nan nan nan nan nan nan nan nan nan nan nan nan nan
253 256 258 260 262 263 264 265 269 274 273 273 277 279 279 280 nan nan nan nan nan nan nan nan nan nan nan nan nan nan nan nan nan nan nan nan nan nan nan nan nan nan nan nan nan nan nan nan nan nan nan nan nan nan nan nan nan nan nan nan nan nan nan nan nan nan nan nan nan nan nan nan nan nan nan nan nan nan nan nan nan nan nan nan nan
251 255 258 259 261 263 265 265 267 270 nan nan nan 274 274 nan nan nan nan nan 291 291 nan nan nan nan nan nan nan nan nan nan nan nan nan nan nan nan nan nan nan nan nan nan nan nan nan nan nan nan nan nan nan nan nan nan nan nan nan nan nan nan nan nan nan nan nan nan nan nan nan nan nan nan nan nan nan nan nan nan nan nan nan nan nan
256 258 257 259 262 262 264 265 264 265 268 266 264 nan 266 272 281 283 nan nan nan nan nan nan nan nan nan nan nan nan nan nan nan nan nan nan nan nan nan nan nan nan nan nan nan nan nan nan nan nan nan nan nan nan nan nan nan nan nan nan nan nan nan nan nan nan nan nan nan nan nan nan nan nan nan nan nan nan nan nan nan nan nan nan nan
258 262 267 267 266 266 262 260 260 263 266 269 273 nan nan nan nan nan nan nan nan nan nan nan nan nan nan nan nan nan nan nan nan nan nan nan nan nan nan nan nan nan nan nan nan nan nan nan nan nan nan nan nan nan nan nan nan nan nan nan nan nan nan nan nan nan nan nan nan nan nan nan nan nan nan nan nan nan nan nan nan nan nan nan nan
265 263 263 268 268 264 259 257 260 264 263 262 268 271 274 nan nan nan nan nan nan nan nan nan nan nan nan nan nan nan nan nan nan nan nan nan nan nan nan nan nan nan nan nan nan nan nan nan nan nan nan nan nan nan nan nan nan nan nan nan nan nan nan nan nan nan nan nan nan nan nan nan nan nan nan nan nan nan nan nan nan nan nan nan nan
265 264 262 259 261 262 264 266 267 268 268 265 266 274 nan nan nan nan nan nan nan nan nan nan nan nan nan nan nan nan nan nan nan nan nan nan nan nan nan nan nan nan nan nan nan nan nan nan nan nan nan nan nan nan nan nan nan nan nan nan nan nan nan nan nan nan nan nan nan nan nan nan nan nan nan nan nan nan nan nan nan nan nan nan nan
257 260 259 260 262 264 268 268 268 270 273 280 279 nan nan nan nan nan nan nan nan nan nan nan nan nan nan nan nan nan nan nan nan nan nan nan nan nan nan nan nan nan nan nan nan nan nan nan nan nan nan nan nan nan nan nan nan nan nan nan nan nan nan nan nan nan nan nan nan nan nan nan nan nan nan nan nan nan nan nan nan nan nan nan nan
255 254 257 256 258 262 264 265 267 nan nan nan nan nan nan nan nan nan nan nan nan nan nan nan nan nan nan nan nan nan nan nan nan nan nan nan nan nan nan nan nan nan nan nan nan nan nan nan nan nan nan nan nan nan nan nan nan nan nan nan nan nan nan nan nan nan nan nan nan nan nan nan nan nan nan nan nan nan nan nan nan nan nan nan nan
251 254 255 259 259 258 nan nan nan nan nan nan nan nan nan nan nan nan nan nan nan nan nan nan nan nan nan nan nan nan nan nan nan nan nan nan nan nan nan nan nan nan nan nan nan nan nan nan nan nan nan nan nan nan nan nan nan nan nan nan nan nan nan nan nan nan nan nan nan nan nan nan nan nan nan nan nan nan nan nan nan nan nan nan nan
nan nan 271 270 nan nan nan nan nan nan nan nan nan nan nan nan nan nan nan nan nan nan nan nan nan nan nan nan nan nan nan nan nan nan nan nan nan nan nan nan nan nan nan nan nan nan nan nan nan nan nan nan nan nan nan nan nan nan nan nan nan nan nan nan nan nan nan nan nan nan nan nan nan nan nan nan nan nan nan nan nan nan nan nan nan